Location: Karcze
(52.0945°N, 22.4786°E)
Time: 12:18:13
(UTC+00:00)

Cosmos 1140 Rocket - Pass Details

Date: 14 July 2020
Orbit: 744 x 768 km, 74.1° (Epoch: 08 August)

Event Time Altitude Azimuth Distance (km) Brightness Sun altitude
Exits shadow 00:52:13 14° 207° (SSW) 2,031 5.0 -10.5°
Maximum altitude 00:56:45 83° 295° (WNW) 777 3.5 -10.1°
Drops below altitude 10° 01:02:02 10° 24° (NNE) 2,317 7.5 -9.7°
Sets 01:04:25 0° 26° (NNE) 3,249 8.8 -9.5°
